This is the latest recevied weather packets stored in our database for station/object KB4RFE. If no packets are shown the sender has not sent any weather packets the latest 10 day(s).
| Time | Temp. | Humidity | Pressure | Rain* | Wind** | Luminosity | Snow |
|---|---|---|---|---|---|---|---|
| 1777814791 | 15.56° C | 78% | 1021.9 hPa | 0 mm | - | 416 W/m² | - |
| 1777814488 | 15° C | 83% | 1021.9 hPa | 0 mm | - | 394 W/m² | - |
| 1777814186 | 14.44° C | 84% | 1022 hPa | 0 mm | - | 389 W/m² | - |
| 1777813882 | 14.44° C | 86% | 1022.1 hPa | 0 mm | - | 370 W/m² | - |
| 1777813580 | 13.89° C | 88% | 1022.1 hPa | 0 mm | - | 333 W/m² | - |
| 1777813278 | 13.89° C | 89% | 1022 hPa | 0 mm | - | 184 W/m² | - |
| 1777812974 | 13.33° C | 91% | 1022.2 hPa | 0 mm | - | 86 W/m² | - |
| 1777812672 | 13.33° C | 91% | 1022.1 hPa | 0 mm | - | 60 W/m² | - |
| 1777812369 | 12.78° C | 93% | 1021.8 hPa | 0 mm | - | 75 W/m² | - |
| 1777812067 | 12.78° C | 95% | 1021.8 hPa | 0 mm | - | 55 W/m² | - |
| 1777811765 | 12.22° C | 97% | 1021.8 hPa | 0 mm | - | 53 W/m² | - |
| 1777811461 | 12.22° C | 98% | 1021.7 hPa | 0 mm | - | 52 W/m² | - |
| 1777811157 | 11.67° C | 99% | 1021.9 hPa | 0 mm | - | 51 W/m² | - |
| 1777810855 | 11.67° C | 99% | 1021.9 hPa | 0 mm | - | 50 W/m² | - |
| 1777810552 | 11.67° C | 99% | 1021.9 hPa | 0 mm | - | 49 W/m² | - |
| 1777810248 | 11.67° C | 99% | 1021.8 hPa | 0.51 mm | - | 52 W/m² | - |
| 1777809944 | 11.11° C | 99% | 1021.7 hPa | 0 mm | - | 45 W/m² | - |
| 1777809643 | 11.11° C | 99% | 1021.8 hPa | 0 mm | - | 44 W/m² | - |
| 1777809340 | 10.56° C | 99% | 1021.7 hPa | 0 mm | - | 43 W/m² | - |
| 1777809037 | 10.56° C | 99% | 1021.5 hPa | 0 mm | - | 41 W/m² | - |
| 1777808735 | 10.56° C | 99% | 1021.5 hPa | 0 mm | - | 40 W/m² | - |
| 1777808431 | 10° C | 99% | 1021.4 hPa | 0 mm | - | 39 W/m² | - |
| 1777808129 | 10° C | 99% | 1021.3 hPa | 0 mm | - | 42 W/m² | - |
| 1777807827 | 10° C | 99% | 1021.2 hPa | 0 mm | - | 35 W/m² | - |
| 1777807525 | 9.44° C | 99% | 1021.1 hPa | 0 mm | - | 33 W/m² | - |
* Rain latest hour (hover to see other rain measurements)
** Current wind speed in m/s (hover to see current wind gust speed)